Terminal Aerodrome Forecast
Issued by NWS Pocatello, ID

Home | Current Version | Previous Version | Text Only | Print | Product List | Glossary On
Versions: 1 2 3 4 5 6 7 8 9 10 11 12 13 14
000
FTUS45 KPIH 200500
TAFBYI
TAF
KBYI 200520Z 2006/2106 VRB05KT P6SM SKC
     FM201900 14010KT P6SM SCT080
     FM210200 VRB05KT P6SM BKN200=

USA.gov is the U.S. government's official web portal to all federal, state and local government web resources and services.